This demonstration page uses our WeatherBlox Daily Observations layout. Learn more.

Hourly Observations for June 26, 2020

Temp ( °F °C ) Dew Point ( °F °C ) Humidity (%) Winds ( mph kmh ) Pressure ( in mb ) Visibility ( mi km ) Precip ( " mm )
12:15 am 00:15 Partly Cloudy 63 17 63 17 100 100 WSW 3 6 30.05 1017 10 16.0934 0 0
12:35 am 00:35 Clear 61 16 61 16 100 100 W 3 6 30.05 1018 10 16.0934 0 0
12:55 am 00:55 Clear 61 16 61 16 100 100 WSW 6 9 30.05 1018 10 16.0934 0 0
1:15 am 01:15 Clear 61 16 61 16 100 100 W 3 6 30.05 1018 10 16.0934 0 0
1:35 am 01:35 Clear 61 16 61 16 100 100 WSW 5 7 30.05 1018 10 16.0934 0 0
1:55 am 01:55 Clear 61 16 61 16 100 100 Calm 30.05 1018 10 16.0934 0 0
2:15 am 02:15 Clear 59 15 59 15 100 100 WNW 5 7 30.05 1018 10 16.0934 0 0
2:35 am 02:35 Clear 59 15 59 15 100 100 Calm 30.05 1018 10 16.0934 0 0
2:55 am 02:55 Clear 61 16 61 16 100 100 WSW 3 6 30.06 1018 10 16.0934 0 0
3:15 am 03:15 Clear 59 15 59 15 100 100 WSW 3 6 30.05 1018 10 16.0934 0 0
3:35 am 03:35 Clear 59 15 59 15 100 100 Calm 30.05 1018 10 16.0934 0 0
3:55 am 03:55 Clear 59 15 59 15 100 100 Calm 30.05 1018 10 16.0934 0 0
4:15 am 04:15 Clear 57 14 57 14 100 100 Calm 30.05 1018 10 16.0934 0 0
4:35 am 04:35 Clear 57 14 57 14 100 100 Calm 30.05 1018 10 16.0934 0 0
4:55 am 04:55 Clear 57 14 57 14 100 100 Calm 30.05 1018 10 16.0934 0 0
5:15 am 05:15 Clear 57 14 57 14 100 100 Calm 30.05 1018 10 16.0934 0 0
5:35 am 05:35 Clear 57 14 57 14 100 100 Calm 30.06 1018 10 16.0934 0 0
5:55 am 05:55 Sunny 57 14 57 14 100 100 Calm 30.06 1018 10 16.0934 0 0
6:15 am 06:15 Sunny 59 15 59 15 100 100 Calm 30.07 1018 10 16.0934 0 0
6:35 am 06:35 Partly Cloudy 59 15 59 15 100 100 Calm 30.08 1019 10 16.0934 0 0
6:55 am 06:55 Partly Cloudy 59 15 59 15 100 100 Calm 30.08 1019 10 16.0934 0 0
7:15 am 07:15 Partly Cloudy 59 15 59 15 100 100 Calm 30.08 1019 10 16.0934 0 0
7:35 am 07:35 Sunny 61 16 59 15 94 94 Calm 30.08 1019 10 16.0934 0 0
7:55 am 07:55 Sunny 63 17 59 15 88 88 Calm 30.08 1018 10 16.0934 0 0
8:15 am 08:15 Sunny 66 19 61 16 83 83 Calm 30.07 1018 10 16.0934 0 0
8:35 am 08:35 Sunny 68 20 61 16 78 78 Calm 30.07 1018 10 16.0934 0 0
8:55 am 08:55 Sunny 72 22 63 17 73 73 WNW 3 6 30.07 1018 10 16.0934 0 0
9:15 am 09:15 Sunny 73 23 61 16 65 65 Calm 30.08 1019 10 16.0934 0 0
9:35 am 09:35 Sunny 73 23 63 17 69 69 S 3 6 30.07 1018 10 16.0934 0 0
9:55 am 09:55 Sunny 77 25 61 16 57 57 WNW 5 7 30.06 1018 10 16.0934 0 0
10:15 am 10:15 Sunny 77 25 63 17 61 61 W 8 13 30.06 1018 10 16.0934 0 0
10:35 am 10:35 Sunny 79 26 59 15 51 51 NW 10 17 30.05 1018 10 16.0934 0 0
10:55 am 10:55 Sunny 79 26 61 16 54 54 WNW 10 17 30.05 1018 10 16.0934 0 0
11:15 am 11:15 Sunny 81 27 61 16 51 51 WNW 10 17 30.05 1018 10 16.0934 0 0
11:35 am 11:35 Sunny 81 27 61 16 51 51 W 8 13 30.05 1018 10 16.0934 0 0
11:55 am 11:55 Partly Cloudy 81 27 61 16 51 51 NW 8 13 30.04 1017 10 16.0934 0 0
12:15 pm 12:15 Partly Cloudy 82 28 61 16 48 48 W 6 9 30.04 1017 10 16.0934 0 0
12:35 pm 12:35 Partly Cloudy 82 28 61 16 48 48 WNW 7 11 30.03 1017 10 16.0934 0 0
12:55 pm 12:55 Partly Cloudy 82 28 61 16 48 48 WSW 6 9 30.02 1017 10 16.0934 0 0
1:15 pm 13:15 Partly Cloudy 82 28 63 17 51 51 WNW 9 15 30.02 1017 10 16.0934 0 0
1:35 pm 13:35 Partly Cloudy 84 29 63 17 48 48 SW 7 11 30 1016 10 16.0934 0 0
1:55 pm 13:55 Partly Cloudy 84 29 61 16 45 45 WNW 7 11 30 1016 10 16.0934 0 0
2:15 pm 14:15 Mostly Cloudy 82 28 61 16 48 48 W 8 13 29.99 1016 10 16.0934 0 0
2:35 pm 14:35 Mostly Cloudy 84 29 61 16 45 45 W 7 11 29.99 1016 10 16.0934 0 0
2:55 pm 14:55 Partly Cloudy 86 30 63 17 46 46 W 8 13 29.98 1015 10 16.0934 0 0
3:15 pm 15:15 Partly Cloudy 86 30 63 17 46 46 W 9 15 29.98 1015 10 16.0934 0 0
3:35 pm 15:35 Partly Cloudy 86 30 61 16 43 43 W 9 15 29.97 1015 10 16.0934 0 0
3:55 pm 15:55 Partly Cloudy 86 30 63 17 46 46 WSW 5 7 29.96 1014 10 16.0934 0 0
4:15 pm 16:15 Partly Cloudy 86 30 61 16 43 43 W 9 15 29.96 1014 10 16.0934 0 0
4:35 pm 16:35 Partly Cloudy 86 30 61 16 43 43 WSW 5 7 29.96 1014 10 16.0934 0 0
4:55 pm 16:55 Partly Cloudy 88 31 61 16 40 40 WNW 6 9 29.95 1014 10 16.0934 0 0
5:15 pm 17:15 Partly Cloudy 86 30 61 16 43 43 W 10 17 29.96 1014 10 16.0934 0 0
5:35 pm 17:35 Partly Cloudy 88 31 61 16 40 40 WSW 5 7 29.95 1014 10 16.0934 0 0
5:55 pm 17:55 Partly Cloudy 88 31 61 16 40 40 W 7 11 29.95 1014 10 16.0934 0 0
6:15 pm 18:15 Sunny 88 31 59 15 38 38 SW 3 6 29.95 1014 10 16.0934 0 0
6:35 pm 18:35 Sunny 86 30 61 16 43 43 WSW 5 7 29.95 1014 10 16.0934 0 0
6:55 pm 18:55 Sunny 84 29 63 17 48 48 WSW 5 7 29.95 1014 10 16.0934 0 0
7:15 pm 19:15 Sunny 82 28 63 17 51 51 SW 6 9 29.96 1015 10 16.0934 0 0
7:35 pm 19:35 Sunny 82 28 64 18 55 55 SW 6 9 29.95 1014 10 16.0934 0 0
7:55 pm 19:55 Sunny 81 27 64 18 58 58 SW 7 11 29.95 1014 10 16.0934 0 0
8:15 pm 20:15 Partly Cloudy 81 27 64 18 58 58 Calm 29.95 1014 10 16.0934 0 0
8:35 pm 20:35 Partly Cloudy 79 26 64 18 61 61 W 5 7 29.95 1014 10 16.0934 0 0
8:55 pm 20:55 Partly Cloudy 77 25 64 18 65 65 W 5 7 29.95 1014 10 16.0934 0 0
9:15 pm 21:15 Partly Cloudy 77 25 66 19 69 69 W 6 9 29.95 1014 10 16.0934 0 0
9:35 pm 21:35 Partly Cloudy 77 25 64 18 65 65 W 5 7 29.95 1014 10 16.0934 0 0
9:55 pm 21:55 Clear 77 25 64 18 65 65 SW 3 6 29.95 1014 10 16.0934 0 0
10:15 pm 22:15 Clear 75 24 64 18 69 69 W 6 9 29.97 1015 10 16.0934 0 0
10:35 pm 22:35 Partly Cloudy 75 24 64 18 69 69 W 6 9 29.97 1015 10 16.0934 0 0
10:55 pm 22:55 Partly Cloudy 75 24 64 18 69 69 WSW 5 7 29.96 1014 10 16.0934 0 0
11:15 pm 23:15 Partly Cloudy 73 23 64 18 74 74 SW 5 7 29.96 1014 10 16.0934 0 0
11:35 pm 23:35 Mostly Cloudy 73 23 64 18 74 74 SW 6 9 29.95 1014 10 16.0934 0 0
11:55 pm 23:55 Cloudy 73 23 64 18 74 74 SW 5 7 29.94 1014 10 16.0934 0 0

Powered by AerisWeather